Flag for U.S.A. Weather past 2 weeks in Lansing, Michigan, U.S.A.

Now
44 °F

Passing clouds.


Feels Like: 44 °F
Forecast: 34 / 62 °F
Wind: No wind

Location: Capital City Airport

Current Time: Apr 27, 2015 at 11:10:16 PM

Latest Report: Apr 27, 2015 at 9:53 PM


Visibility: 10 mi

Pressure: 30.11 "Hg

Humidity: 65%

Dew point: 33 °F

Location of LansingLocation

Historic Weather in Lansing — Graph

°F

Lansing temperature yesterday

Maximum temperature yesterday: 58 °F (at 4:53 PM)
Minimum temperature yesterday: 30 °F (at 5:53 AM)
Average temperature yesterday: 45 °F

Past Weeks' High & Low Weather Summary

 TemperatureHumidityPressure
High76 °F (Apr 17, 3:53 PM)97% (Apr 20, 4:53 AM)30.38 "Hg (Apr 20, 4:53 AM)
Low26 °F (Apr 24, 3:53 AM)19% (Apr 15, 1:53 PM)29.17 "Hg (Apr 20, 4:53 AM)
Average49 °F56%29.95 "Hg
* Reported Apr 12 9:53 PM — Apr 27 9:53 PM, Lansing, Weather by CustomWeather, © 2015

Note: Actual official high and low records may vary slightly from our data, if they occured in-between our weather recording intervals... More about our weather records

Advertising

Lansing weather history for previous 24 hours

 ConditionsComfort  
Time TempWeatherWind HumidityBarometerVisibility
9:53 PM
Mon, Apr 27
44 °FPassing clouds.No wind65%30.11 "Hg10 mi
8:53 PM48 °FOvercast.No wind56%30.09 "Hg10 mi
7:53 PM51 °FOvercast.3 mph50%30.09 "Hg10 mi
6:53 PM51 °FPassing clouds.5 mph50%30.08 "Hg10 mi
5:53 PM53 °FPartly sunny.7 mph47%30.07 "Hg10 mi
4:53 PM51 °FMostly cloudy.6 mph52%30.07 "Hg10 mi
3:53 PM49 °FOvercast.9 mph55%30.08 "Hg10 mi
2:53 PM49 °FMore clouds than sun.6 mph55%30.08 "Hg10 mi
1:53 PM46 °FOvercast.8 mph62%30.06 "Hg10 mi
12:53 PM46 °FOvercast.8 mph61%30.08 "Hg10 mi
11:53 AM46 °FMostly cloudy.7 mph63%30.06 "Hg10 mi
10:53 AM45 °FOvercast.13 mph65%30.04 "Hg10 mi
9:53 AM45 °FOvercast.12 mph65%30.01 "Hg10 mi
8:53 AM44 °FOvercast.12 mph68%29.99 "Hg10 mi
7:53 AM42 °FOvercast.8 mph71%29.99 "Hg10 mi
6:53 AM41 °FMostly cloudy.8 mph70%29.99 "Hg10 mi
5:53 AM40 °FMostly cloudy.7 mph73%29.98 "Hg10 mi
4:53 AM40 °FOvercast.7 mph73%29.98 "Hg10 mi
3:53 AM40 °FOvercast.7 mph73%29.97 "Hg10 mi
2:53 AM36 °FPassing clouds.7 mph79%29.97 "Hg10 mi
1:53 AM37 °FClear.5 mph79%29.99 "Hg10 mi
12:53 AM39 °FClear.6 mph73%29.98 "Hg10 mi
11:53 PM
Sun, Apr 26
43 °FClear.5 mph62%29.98 "Hg10 mi
Weather by CustomWeather, © 2015

See weather overviewHow to use our weather pages